Total_Precipitation_Accumulation
1.92 2.30 2.66 3.13 3.58 4.07 4.79 5.40 5.82 5.81 5.63 5.30 4.94 4.66 4.15 3.82 3.54 3.26 3.04 2.83 2.58 2.50 2.85 2.59 2.85 2.73 2.63 2.46 2.41 2.53 2.58 2.33 2.55 2.77 2.30 1.80 1.54 1.48 1.39 1.38 1.44 1.38 1.46
1.87 2.22 2.73 3.03 3.39 3.89 4.44 4.85 4.84 4.52 4.40 4.42 4.34 4.09 4.07 3.88 3.73 3.46 3.24 2.86 2.69 2.59 2.44 2.61 2.43 2.39 2.47 2.29 2.18 2.38 2.37 2.14 2.48 2.60 2.56 1.99 1.77 1.53 1.12 1.25 1.37 1.46 1.66
1.51 1.85 2.40 2.71 2.91 3.39 3.70 3.73 3.62 3.45 3.50 3.57 3.56 3.64 3.83 3.81 3.74 3.58 3.31 3.01 2.87 2.76 2.64 2.52 2.33 2.26 2.09 2.17 2.21 2.28 2.32 2.24 2.24 2.29 2.49 2.13 1.76 1.49 1.17 1.18 1.40 1.70 1.90
1.27 1.57 1.90 2.13 2.40 2.64 2.74 2.73 2.80 2.83 2.86 2.93 2.96 2.85 2.86 3.03 3.23 3.43 3.48 3.41 3.15 2.91 2.64 2.47 2.25 2.08 1.95 2.13 1.87 1.97 2.26 2.36 2.10 2.11 2.08 2.00 2.06 1.99 1.62 1.31 1.24 1.50 1.71
1.29 1.49 1.60 1.76 1.86 1.88 1.98 2.05 2.33 2.66 2.78 2.87 2.96 2.85 2.56 2.53 2.57 2.70 2.85 2.85 2.82 2.66 2.37 2.25 2.18 2.04 1.91 1.91 1.87 2.14 2.15 2.12 2.07 2.13 2.12 2.21 2.34 2.16 2.00 1.68 1.59 1.70 1.70
1.00 1.22 1.48 1.56 1.51 1.48 1.63 1.84 2.14 2.56 2.79 2.85 2.78 2.73 2.61 2.58 2.50 2.50 2.54 2.42 2.39 2.32 2.16 2.08 2.13 1.99 1.86 1.86 1.86 2.00 2.06 2.16 2.25 2.26 2.23 2.29 2.26 2.28 2.47 2.15 1.94 1.89 1.68
0.76 0.78 0.96 1.21 1.18 1.13 1.29 1.56 1.75 2.09 2.32 2.40 2.37 2.28 2.38 2.48 2.36 2.24 2.16 2.09 1.96 1.88 1.88 1.95 2.04 1.88 1.82 1.89 2.04 2.03 2.00 2.15 2.25 2.18 2.25 2.33 2.27 2.39 2.58 2.51 2.18 2.00 1.80
0.57 0.55 0.62 0.78 1.00 1.00 1.05 1.17 1.42 1.67 1.87 1.91 2.00 2.10 2.25 2.35 2.30 2.44 2.24 2.09 1.81 1.67 1.73 1.92 1.98 1.90 1.83 1.81 2.14 2.13 2.14 2.22 2.21 2.11 2.39 2.45 2.25 2.45 2.67 2.78 2.78 2.48 2.32
0.47 0.47 0.55 0.73 0.76 0.74 0.80 0.92 1.15 1.35 1.50 1.62 1.77 1.84 1.82 1.83 1.96 2.14 2.16 2.01 1.92 1.73 1.81 1.88 2.05 2.13 2.19 2.21 2.34 2.27 2.27 2.44 2.42 2.37 2.53 2.53 2.40 2.43 2.55 2.80 3.01 3.02 2.83
0.47 0.45 0.47 0.55 0.55 0.54 0.68 0.93 1.11 1.14 1.35 1.64 1.80 1.71 1.71 1.61 1.73 1.81 1.85 1.91 1.86 1.85 1.88 1.90 1.97 2.09 2.20 2.26 2.41 2.39 2.45 2.64 2.65 2.70 2.77 2.65 2.42 2.52 2.58 2.73 3.00 3.25 3.27
0.48 0.48 0.46 0.47 0.58 0.52 0.61 0.79 0.92 1.05 1.34 1.64 1.84 1.84 1.71 1.68 1.77 1.71 1.67 1.80 1.84 1.82 1.87 1.88 1.86 1.85 1.99 2.20 2.41 2.38 2.54 2.66 2.72 2.71 2.62 2.50 2.55 2.70 2.64 2.76 2.91 3.13 3.34
0.40 0.38 0.35 0.41 0.41 0.41 0.53 0.82 1.13 1.48 1.64 1.89 2.15 2.16 1.87 1.67 1.61 1.50 1.51 1.68 1.86 1.89 1.85 1.84 1.81 1.78 1.88 2.15 2.33 2.45 2.69 2.82 2.74 2.66 2.60 2.48 2.59 2.69 2.67 2.73 2.74 2.80 3.07
0.43 0.42 0.38 0.46 0.44 0.42 0.45 0.58 0.73 1.06 1.38 1.71 1.99 1.97 1.72 1.52 1.49 1.50 1.54 1.67 1.80 1.81 1.77 1.79 1.86 1.98 2.10 2.30 2.43 2.53 2.71 2.67 2.57 2.59 2.51 2.40 2.46 2.42 2.49 2.53 2.51 2.50 2.61
0.54 0.50 0.47 0.45 0.44 0.44 0.43 0.52 0.60 0.70 0.90 1.29 1.55 1.57 1.42 1.36 1.38 1.45 1.47 1.46 1.50 1.56 1.63 1.83 2.07 2.23 2.36 2.44 2.49 2.49 2.47 2.46 2.37 2.28 2.20 2.21 2.31 2.37 2.37 2.30 2.29 2.35 2.49
0.55 0.52 0.51 0.55 0.56 0.61 0.60 0.60 0.61 0.65 0.81 1.19 1.39 1.36 1.31 1.31 1.28 1.29 1.37 1.43 1.50 1.55 1.77 1.94 2.05 2.09 2.15 2.23 2.34 2.34 2.28 2.24 2.15 2.04 1.86 1.89 2.18 2.31 2.28 2.12 2.19 2.27 2.38
0.54 0.52 0.46 0.55 0.62 0.67 0.68 0.66 0.67 0.71 0.83 1.08 1.29 1.28 1.25 1.23 1.17 1.22 1.31 1.47 1.58 1.74 1.92 1.93 1.91 1.88 1.64 1.74 1.86 1.89 1.91 1.91 1.88 1.78 1.71 1.73 1.82 1.84 1.89 1.89 1.89 1.94 2.02
0.53 0.53 0.56 0.65 0.84 0.76 0.76 0.81 0.75 0.76 0.88 1.09 1.25 1.31 1.28 1.30 1.28 1.25 1.41 1.61 1.78 1.93 2.04 2.00 1.94 1.83 1.75 1.66 1.54 1.52 1.56 1.69 1.72 1.74 1.79 1.57 1.43 1.55 1.58 1.71 1.70 1.63 1.70
0.62 0.69 0.67 0.74 0.82 0.80 0.83 0.86 0.86 0.86 0.96 1.14 1.34 1.41 1.36 1.40 1.49 1.49 1.58 1.81 2.03 2.17 2.19 2.14 2.04 1.97 1.91 1.81 1.60 1.54 1.50 1.62 1.66 1.65 1.68 1.64 1.55 1.52 1.62 1.69 1.64 1.51 1.46
0.72 0.78 0.86 0.89 0.96 0.97 0.92 0.93 1.03 1.05 1.13 1.21 1.38 1.50 1.53 1.60 1.62 1.66 1.84 2.07 2.25 2.29 2.28 2.31 2.21 2.14 2.17 2.01 1.65 1.49 1.44 1.60 1.64 1.64 1.59 1.55 1.51 1.55 1.43 1.41 1.44 1.43 1.40
0.88 0.86 0.93 0.97 1.00 1.04 1.09 1.12 1.20 1.32 1.44 1.53 1.63 1.82 1.99 2.15 2.21 2.24 2.29 2.34 2.43 2.39 2.40 2.34 2.31 2.21 2.18 2.07 1.58 1.34 1.33 1.52 1.57 1.63 1.60 1.50 1.37 1.34 1.22 1.22 1.37 1.35 1.33
0.85 0.91 0.91 1.00 1.09 1.10 1.22 1.39 1.47 1.58 1.71 1.86 1.94 2.14 2.42 2.59 2.59 2.59 2.52 2.43 2.44 2.47 2.43 2.31 2.26 2.20 2.11 2.02 1.60 1.41 1.42 1.57 1.66 1.65 1.61 1.55 1.41 1.21 1.16 1.13 1.19 1.25 1.21
0.77 0.88 0.93 0.98 1.16 1.39 1.58 1.82 1.93 1.91 2.01 2.15 2.29 2.47 2.68 2.62 2.56 2.73 2.65 2.61 2.67 2.65 2.49 2.36 2.25 2.25 2.19 2.00 1.69 1.46 1.50 1.64 1.75 1.81 1.77 1.68 1.46 1.21 1.12 1.05 1.04 1.02 0.94
0.74 0.84 0.92 1.04 1.21 1.48 1.85 2.11 2.16 2.26 2.30 2.37 2.51 2.58 2.63 2.78 2.92 2.98 2.88 2.78 2.73 2.63 2.42 2.29 2.15 2.07 2.12 2.15 1.75 1.47 1.52 1.59 1.63 1.79 1.83 1.56 1.32 1.16 1.00 0.98 0.97 0.88 0.82
0.79 0.83 0.92 1.09 1.35 1.58 1.89 2.05 2.11 2.15 2.18 2.23 2.23 2.31 2.45 2.58 2.68 2.91 2.96 2.85 2.69 2.59 2.50 2.38 2.21 2.09 2.11 2.12 1.79 1.48 1.45 1.51 1.49 1.57 1.64 1.49 1.31 1.16 1.03 0.98 0.93 0.88 0.91
0.82 0.90 0.99 1.11 1.24 1.45 1.65 1.76 1.92 2.00 2.16 2.21 2.14 2.10 2.13 2.27 2.38 2.48 2.54 2.50 2.47 2.28 2.16 2.05 1.96 1.93 1.96 1.94 1.68 1.48 1.46 1.55 1.60 1.56 1.58 1.56 1.42 1.29 1.18 1.15 1.18 1.19 1.14
0.81 0.91 1.01 1.14 1.24 1.41 1.61 1.71 1.84 1.92 2.00 2.03 1.96 1.96 1.95 2.04 2.09 2.10 2.03 1.85 1.77 1.61 1.45 1.38 1.31 1.32 1.38 1.51 1.36 1.23 1.30 1.44 1.49 1.38 1.39 1.50 1.50 1.42 1.34 1.27 1.27 1.26 1.20